Blythe, CA

11:15 PM PDT on October 22, 2019 (GMT -0700)
Blythe

Weather History for KBLH - September, 2019

Change the Weather History Date:

Tuesday, September 17, 2019

  Actual Average Record
Temperature  
Mean Temperature 91 °F -  
Max Temperature 102 °F 99 °F 109 °F (1998)
Min Temperature 82 °F 72 °F 62 °F (1977)
Cooling Degree Days 26    
Growing Degree Days 41 (Base 50)    
Moisture  
Dew Point 31 °F    
Average Humidity 12    
Maximum Humidity 21    
Minimum Humidity 8    
Precipitation  
Precipitation 0.00 in - - ()
Sea Level Pressure  
Sea Level Pressure 29.79 in    
Wind  
Wind Speed 8 mph (SW)    
Max Wind Speed 20 mph    
Max Gust Speed 28 mph    
Visibility 10 miles    
Events      
Averages and records for this station are not official NWS values.
T = Trace of Precipitation, MM = Missing Value Source: NWS Daily Summary

Daily Weather History Graph

Daily Weather History Graph

Search for Another Location

Airport or City:

Astronomy

Sep. 17, 2019 Rise Set
Actual Time 6:23 AM PDT 6:42 PM PDT
Civil Twilight 5:58 AM PDT 7:07 PM PDT
Nautical Twilight 5:29 AM PDT 7:36 PM PDT
Astronomical Twilight 4:59 AM PDT 8:06 PM PDT
Moon 8:57 PM PDT (9/17) 9:24 AM PDT (9/17)
Length of Visible Light 13h 09m
Length of Day
12h 19m
Waning Gibbous, 88% of the Moon is Illuminated
Sep 17
Waning Gibbous
Sep 21
Last Quarter
Sep 28
New
Oct 5
First Quarter
Oct 13
Full

Hourly Weather History & Observations

Time (PDT) Temp. Dew Point Humidity Pressure Visibility Wind Dir Wind Speed Gust Speed Precip Events Conditions
12:52 AM 88.0 °F 35.1 °F 15% 29.76 in 10.0 mi SSE 6.9 mph - N/A   Clear
1:52 AM 84.0 °F 39.9 °F 21% 29.77 in 10.0 mi SSE 4.6 mph - N/A   Scattered Clouds
2:52 AM 87.1 °F 35.1 °F 16% 29.77 in 10.0 mi South 8.1 mph - N/A   Mostly Cloudy
3:52 AM 84.9 °F 33.1 °F 16% 29.78 in 10.0 mi West 10.4 mph - N/A   Overcast
4:52 AM 84.9 °F 28.9 °F 13% 29.80 in 10.0 mi SSW 4.6 mph - N/A   Partly Cloudy
5:52 AM 84.9 °F 27.0 °F 12% 29.81 in 10.0 mi SW 10.4 mph - N/A   Clear
6:52 AM 82.9 °F 26.1 °F 13% 29.83 in 10.0 mi SSE 5.8 mph - N/A   Clear
7:52 AM 84.0 °F 33.1 °F 16% 29.84 in 10.0 mi SE 8.1 mph - N/A   Clear
8:52 AM 88.0 °F 28.9 °F 12% 29.86 in 10.0 mi South 6.9 mph - N/A   Clear
9:52 AM 91.0 °F 30.9 °F 12% 29.87 in 10.0 mi Calm Calm - N/A   Clear
10:52 AM 93.0 °F 26.1 °F 9% 29.86 in 10.0 mi West 8.1 mph - N/A   Clear
11:52 AM 96.1 °F 28.0 °F 9% 29.84 in 10.0 mi Variable 4.6 mph 16.1 mph N/A   Clear
12:52 PM 98.1 °F 26.1 °F 8% 29.82 in 10.0 mi Variable 5.8 mph - N/A   Clear
1:52 PM 100.0 °F 34.0 °F 10% 29.79 in 10.0 mi SSW 8.1 mph 19.6 mph N/A   Clear
2:52 PM 100.9 °F 33.1 °F 9% 29.77 in 10.0 mi WSW 19.6 mph 27.6 mph N/A   Clear
3:52 PM 100.9 °F 30.9 °F 9% 29.75 in 10.0 mi West 18.4 mph 27.6 mph N/A   Clear
4:52 PM 100.0 °F 28.9 °F 8% 29.74 in 10.0 mi West 19.6 mph - N/A   Clear
5:52 PM 98.1 °F 28.9 °F 9% 29.74 in 10.0 mi WSW 13.8 mph - N/A   Clear
6:52 PM 95.0 °F 30.9 °F 10% 29.74 in 10.0 mi WSW 6.9 mph - N/A   Clear
7:52 PM 91.9 °F 30.9 °F 11% 29.75 in 10.0 mi WSW 6.9 mph - N/A   Clear
8:52 PM 90.0 °F 28.9 °F 11% 29.76 in 10.0 mi WSW 10.4 mph - N/A   Clear
9:52 PM 89.1 °F 32.0 °F 13% 29.77 in 10.0 mi SW 11.5 mph - N/A   Clear
10:52 PM 84.0 °F 30.9 °F 15% 29.77 in 10.0 mi NNW 3.5 mph - N/A   Clear
11:52 PM 82.9 °F 33.1 °F 17% 29.77 in 10.0 mi WNW 4.6 mph - N/A   Clear